DW9584 Weather Reports


time (UTC)temp
F
wind
direction
speed
knots
gust
knots
rain 1hr
in
rain 24hr
in
rain mn
in
humidity
%
barometer
mb
20260901143012 79 207 0.0 2.6 0.00 0.00 0.00 87 1016.4
20260901141508 78 154 0.9 3.5 0.00 0.00 0.00 87 1016.3
20260901140007 77 265 0.0 1.7 0.00 0.00 0.00 91 1016.2
20260901134504 77 265 0.0 1.7 0.00 0.00 0.00 91 1016.0
20260901133004 77 265 0.0 1.7 0.00 0.00 0.00 91 1016.1
20260901131524 77 265 0.0 1.7 0.00 0.00 0.00 91 1016.4
20260901130023 76 201 0.0 4.3 0.00 0.00 0.00 93 1016.5
20260901124522 75 283 0.0 2.6 0.00 0.00 0.00 95 1016.5
20260901123016 74 243 0.0 1.7 0.00 0.00 0.00 96 1016.6
20260901121515 73 236 0.0 1.7 0.00 0.00 0.00 96 1016.4
20260901120007 72 237 0.0 2.6 0.00 0.00 0.00 96 1016.6
20260901114506 72 213 0.0 0.0 0.00 0.00 0.00 96 1016.8
20260901113032 71 213 0.0 0.0 0.00 0.00 0.00 96 1016.8
20260901111526 71 213 0.0 0.0 0.00 0.00 0.00 96 1016.7
20260901110026 71 213 0.0 0.0 0.00 0.00 0.00 96 1016.6
20260901104523 71 213 0.0 0.0 0.00 0.00 0.00 96 1016.5
20260901103018 71 213 0.0 0.0 0.00 0.00 0.00 96 1016.6
20260901101519 71 213 0.0 0.0 0.00 0.00 0.00 96 1016.5
20260901100013 71 213 0.0 0.0 0.00 0.00 0.00 96 1016.4
20260901094512 71 213 0.0 0.0 0.00 0.00 0.00 96 1016.3
20260901093034 71 213 0.0 0.0 0.00 0.00 0.00 96 1016.3
20260901091529 71 213 0.0 0.0 0.00 0.00 0.00 96 1016.5
20260901090033 71 213 0.0 0.0 0.00 0.00 0.00 96 1016.6
20260901084532 72 213 0.0 0.0 0.00 0.00 0.00 96 1016.7
20260901083031 72 213 0.0 0.0 0.00 0.00 0.00 96 1016.7
20260901081523 72 213 0.0 0.0 0.00 0.00 0.00 95 1016.8
20260901080017 72 213 0.0 0.0 0.00 0.00 0.00 95 1016.6
20260901074533 72 213 0.0 0.0 0.00 0.00 0.00 95 1016.7
20260901073032 72 213 0.0 0.0 0.00 0.00 0.00 95 1016.7
20260901071530 72 213 0.0 0.0 0.00 0.00 0.00 95 1016.7
20260901070032 72 213 0.0 0.0 0.00 0.00 0.00 95 1016.8
20260901064531 72 213 0.0 0.0 0.00 0.00 0.00 95 1017.1
20260901063028 72 213 0.0 0.0 0.00 0.00 0.00 95 1017.2
20260901061527 72 213 0.0 0.0 0.00 0.00 0.00 95 1017.2
20260901060023 72 213 0.0 1.7 0.00 0.00 0.00 95 1017.3
20260901054536 72 213 0.0 0.0 0.00 0.00 0.00 94 1017.5
20260901053020 72 213 0.0 0.0 0.00 0.00 0.00 94 1017.7
20260901051510 72 213 0.0 0.0 0.00 0.00 0.00 94 1017.8
20260901050008 72 213 0.0 0.0 0.00 0.00 0.00 94 1018.0
20260901044508 72 213 0.0 0.0 0.00 0.00 0.00 94 1018.2
20260901043037 72 213 0.0 0.0 0.00 0.00 0.00 94 1018.2
20260901041529 72 213 0.0 0.0 0.00 0.01 0.00 94 1018.4
20260901040025 72 213 0.0 0.0 0.00 0.01 0.00 93 1018.5
20260901034520 72 213 0.0 0.0 0.00 0.01 0.01 93 1018.3
20260901033015 72 213 0.0 0.0 0.00 0.01 0.01 93 1018.2
20260901031516 72 213 0.0 0.0 0.00 0.02 0.01 93 1018.4
20260901030015 72 213 0.0 0.0 0.00 0.04 0.01 92 1018.5
20260901024506 72 213 0.0 0.0 0.00 0.04 0.01 92 1018.4
20260901023027 71 213 0.0 0.0 0.00 0.06 0.01 92 1018.5
20260901021534 71 213 0.0 0.0 0.00 0.07 0.01 92 1018.7
20260901020046 71 213 0.0 0.0 0.00 0.08 0.01 91 1018.7
20260901014526 71 213 0.0 0.0 0.00 0.08 0.01 90 1018.6
20260901013021 71 213 0.0 0.0 0.00 0.08 0.01 89 1018.6
20260901011514 72 213 0.0 0.0 0.00 0.08 0.01 88 1018.4
20260901010014 72 213 0.0 0.0 0.00 0.08 0.01 88 1018.3
20260901004537 72 213 0.0 0.0 0.00 0.08 0.01 87 1018.4
20260901003033 72 213 0.0 0.0 0.00 0.08 0.01 87 1018.2
20260901001528 73 213 0.0 0.0 0.00 0.08 0.01 86 1017.9
20260901000030 73 213 0.0 0.0 0.00 0.08 0.01 85 1017.8
20260831234526 73 213 0.0 0.0 0.00 0.08 0.01 84 1018.1
20260831233035 74 213 0.0 0.0 0.00 0.08 0.01 82 1018.2
20260831231520 74 213 0.0 0.0 0.00 0.08 0.01 83 1018.3
20260831230015 75 213 0.0 0.0 0.00 0.08 0.01 84 1018.5
20260831224535 75 213 0.0 0.0 0.00 0.08 0.01 82 1018.4
20260831223034 76 213 0.0 0.0 0.00 0.08 0.01 81 1018.4
20260831221532 77 213 0.0 0.0 0.00 0.08 0.01 78 1018.5
20260831220030 76 213 0.0 0.0 0.00 0.08 0.01 80 1018.8
20260831214527 76 213 0.0 0.0 0.00 0.08 0.01 80 1018.9
20260831213034 76 213 0.0 0.0 0.00 0.08 0.01 81 1018.8
20260831211525 76 213 0.0 0.0 0.00 0.08 0.01 78 1018.8
20260831210032 78 317 0.0 1.7 0.00 0.08 0.01 75 1019.0
20260831204533 79 316 0.0 1.7 0.00 0.08 0.01 72 1019.2
20260831203036 78 249 0.0 1.7 0.00 0.08 0.01 76 1019.2
20260831201539 78 233 0.0 0.0 0.00 0.08 0.01 77 1019.0
20260831200039 78 233 0.0 1.7 0.00 0.08 0.01 77 1019.1
20260831194505 77 269 0.0 1.7 0.00 0.08 0.01 77 1019.4
20260831193028 78 236 0.0 2.6 0.00 0.08 0.01 74 1019.5
20260831191530 77 225 0.0 1.7 0.00 0.08 0.01 76 1019.8
20260831190026 77 185 0.0 0.0 0.00 0.08 0.01 74 1019.9
20260831184525 78 185 0.0 1.7 0.00 0.08 0.01 71 1020.1
20260831183019 79 321 0.0 1.7 0.00 0.08 0.01 73 1020.0
20260831181519 77 169 0.0 0.9 0.00 0.08 0.01 78 1020.0
20260831180010 76 155 0.0 2.6 0.00 0.08 0.01 75 1020.1
20260831174530 77 231 0.0 1.7 0.00 0.08 0.01 73 1020.3
20260831173041 77 165 0.0 1.7 0.00 0.08 0.01 72 1020.3
20260831171528 77 165 0.0 1.7 0.00 0.08 0.01 71 1020.3
20260831170028 77 1 0.0 1.7 0.00 0.08 0.01 69 1020.3
20260831164524 77 21 0.0 1.7 0.00 0.08 0.01 71 1020.3
20260831163019 77 349 0.0 2.6 0.00 0.08 0.01 71 1020.4
20260831161518 75 335 0.0 1.7 0.00 0.08 0.01 73 1020.5
20260831160025 76 347 0.0 1.7 0.00 0.08 0.01 78 1020.4
20260831154556 75 347 0.0 0.0 0.00 0.08 0.01 75 1020.4
20260831153030 74 347 0.0 1.7 0.00 0.08 0.01 79 1020.5
20260831151532 74 359 0.0 1.7 0.00 0.08 0.01 79 1020.3
20260831150027 74 359 0.0 1.7 0.00 0.08 0.01 80 1020.7
20260831144540 73 359 0.0 0.9 0.00 0.08 0.01 81 1020.9